[[{"header":{"parameterUnit":"m.s-1","parameterCategory":1,"la1":30.2991,"la2":30.254,"lo1":-89.0895,"lo2":-89.0444,"dy":0.0017,"dx":0.0017,"nx":28,"ny":28,"refTime":"2024-12-10T03:00:00:Z","depth":0,"parameterNumber":2,"parameterNumberName":"U-component_of_WINDS"},"data":[0,0,0,0,0,0,0,0,0,0,0,0,0,0,0,0,0,0,0,0,0,0,0,0,0,0,0,0,0,0,0,0,0,0,0,0,0,0,0,0,0,0,0,0,0,0,0,0,0,0,0,0,0,0,0,0,0,0,4.2078,4.208,0,4.2212,4.2214,4.2215,4.2137,4.2133,4.2129,4.2126,4.2265,4.2272,4.2279,0,0,0,0,0,0,0,0,0,0,0,0,0,4.1757,4.1763,4.2078,4.208,4.2082,4.2212,4.2214,4.2216,4.2137,4.2133,4.2128,4.2124,4.2262,4.2271,4.228,0,0,0,0,0,0,0,0,0,0,0,0,0,4.1894,4.1765,4.2078,4.2058,4.2058,4.2211,4.2214,4.2216,4.2138,4.2133,4.2127,4.2122,4.2259,4.227,4.2281,4.2462,0,0,4.2314,4.2319,0,0,0,0,0,0,0,0,4.1887,4.1906,4.206,4.206,4.206,4.2152,4.2151,4.2299,4.214,4.2108,4.2125,4.2119,4.2232,4.2245,4.2282,4.2468,4.2474,4.2315,4.2322,4.2326,4.2329,0,0,0,0,0,0,0,4.1877,4.19,4.2131,4.2062,4.2062,4.2043,4.2057,4.2179,4.22,4.211,4.2105,4.2122,4.2231,4.2272,4.2285,4.2476,4.2315,4.2324,4.2331,4.2335,4.2817,4.2823,0,0,0,0,0,0,4.1869,4.1893,4.2127,4.2135,4.1957,4.2054,4.2069,4.2128,4.2199,4.2204,4.2126,4.2118,4.2256,4.2272,4.229,4.2505,4.2326,4.2336,4.2343,4.2811,4.2818,4.2825,0,0,0,0,0,0,4.1862,4.189,4.2122,4.2013,4.204,4.2065,4.2133,4.2134,4.2175,4.2211,4.2215,4.2164,4.2252,4.2274,4.2419,4.2509,4.2341,4.2351,4.2803,4.2813,4.2822,4.2939,0,0,0,0,0,0,4.1853,4.1889,4.1957,4.2015,4.2047,4.2249,4.2138,4.214,4.2193,4.2183,4.2248,4.2253,4.225,4.2403,4.243,4.2521,4.236,4.2795,4.2807,4.2819,4.2927,4.2951,4.2972,0,0,0,0,0,4.1842,4.1986,4.1961,4.199,4.2133,4.2254,4.2273,4.2265,4.2201,4.227,4.2294,4.2251,4.2495,4.2419,4.2448,4.2544,4.2789,4.2804,4.2818,4.2917,4.2947,4.2971,0,0,0,0,0,0,4.1939,4.1993,4.1966,4.2133,4.2189,4.2241,4.2328,4.2297,4.2374,4.2361,4.2349,4.2365,4.2515,4.2544,4.2458,4.2722,4.2632,4.2653,4.2698,4.2726,4.2748,4.2738,4.2369,0,0,0,0,0,4.198,4.2073,4.2115,4.2258,4.2288,4.2304,4.2356,4.2346,4.2404,4.2428,4.2462,4.2521,4.261,4.267,4.2755,4.2931,4.2944,4.3011,4.3034,4.3052,4.307,4.3164,4.3194,4.2871,4.2871,4.2871,0,0,4.2065,4.2106,4.2166,4.2279,4.2321,4.2419,4.2324,4.2431,4.2503,4.2444,4.2583,4.261,4.2675,4.2836,4.2909,4.2865,4.3162,4.307,4.3084,4.3092,4.3181,4.3212,4.3239,4.2881,4.2879,4.2878,0,0,4.227,4.2311,4.2433,4.2478,4.2543,4.2552,4.2582,4.2639,4.2654,4.2792,4.275,4.2836,4.2991,4.3039,4.3083,4.3306,4.3269,4.3334,4.345,4.3542,4.3568,4.359,4.3668,4.3697,4.3352,4.3352,4.3352,0,4.2368,4.2512,4.2501,4.2611,4.2661,4.2612,4.2736,4.278,4.2871,4.2907,4.2856,4.3049,4.309,4.3261,4.3315,4.3353,4.3386,4.3326,4.3565,4.3587,4.3608,4.3683,4.3712,4.3359,4.3359,4.3358,4.3357,0,4.2628,4.2729,4.2821,4.2908,4.2969,4.3086,4.3093,4.3156,4.314,4.3155,4.3296,4.3343,4.3436,4.3476,4.3462,4.3645,4.3616,4.3566,4.3475,4.3646,4.3716,4.3745,4.337,4.3367,4.3365,4.3363,0,0,4.2898,4.2977,4.3011,4.3049,4.3118,4.3195,4.331,4.34,4.3454,4.3518,4.3614,4.3746,4.37,4.375,4.3742,4.3823,4.3994,4.3762,4.3763,4.3803,4.4198,4.4234,4.4267,4.3971,4.3976,4.398,4.4192,0,4.3106,4.3305,4.3298,4.3484,4.3576,4.353,4.363,4.3683,4.37,4.3781,4.38,4.3893,4.3825,4.3856,4.3934,4.3957,4.4073,4.3942,4.4059,4.4063,4.4043,4.4304,4.4343,4.454,4.4219,4.4224,4.4227,0,4.3375,4.3447,4.3642,4.3695,4.3734,4.3824,4.3905,4.3983,4.4042,4.4049,4.4106,4.4083,4.42,4.4106,4.4266,4.4176,4.4224,4.4243,4.425,4.426,4.4155,4.432,4.4603,4.4632,4.427,4.4267,4.4263,0,4.3551,4.3697,4.3832,4.3866,4.3933,4.3996,4.4027,4.408,4.4135,4.4206,4.4241,4.4326,4.4372,4.4438,4.4439,4.4372,4.4601,4.4507,4.4609,4.4609,4.4658,4.4655,4.4952,4.4691,4.4691,4.469,4.469,0,4.3784,4.3904,4.3911,4.3994,4.4128,4.4119,4.4252,4.4276,4.4324,4.4411,4.4377,4.446,4.4457,4.4541,4.4543,4.4674,4.4695,4.4704,4.4702,4.4706,4.4705,4.4736,4.4722,4.4698,4.4696,4.4695,4.4694,0,4.4002,4.4012,4.4156,4.4206,4.4222,4.4318,4.4361,4.444,4.4454,4.4564,4.459,4.4611,4.4708,4.4716,4.4829,4.483,4.4988,4.4973,4.4968,4.4965,4.5065,4.5055,4.5392,4.5435,4.5148,4.5151,4.5153,0,4.415,4.4241,4.4301,4.4356,4.439,4.448,4.4535,4.453,4.4589,4.4662,4.4732,4.4825,4.49,4.5056,4.5082,4.5168,4.5154,4.5266,4.5166,4.5167,4.5154,4.5148,4.5156,4.5285,4.5288,4.5291,4.5293,0,4.441,4.4409,4.4489,4.4571,4.4637,4.4701,4.4761,4.4809,4.4811,4.4878,4.4976,4.5034,4.5148,4.5241,4.5325,4.5356,4.5326,4.5324,4.5352,4.5356,4.5348,4.5352,4.5019,4.5316,4.5314,4.5312,4.5311,4.531,4.4596,4.4675,4.4729,4.4819,4.4863,4.492,4.4996,4.5018,4.51,4.5191,4.5184,4.5292,4.5348,4.5457,4.5496,4.558,4.5542,4.5583,4.5593,4.5603,4.5612,4.5336,4.5596,4.5595,4.5594,4.5594,4.5593,0,4.4853,4.4885,4.4968,4.5052,4.5123,4.5087,4.5151,4.5213,4.5308,4.5363,4.5436,4.5548,4.5638,4.5671,4.5758,4.5819,4.5807,4.5842,4.5837,4.5845,4.5642,4.5608,4.5851,4.5851,4.585,4.585,4.585,4.585,4.4995,4.5126,4.5132,4.5284,4.5316,4.5421,4.546,4.5512,4.5555,4.5682,4.5756,4.5776,4.5822,4.5912,4.5993,4.6,4.6033,4.6074,4.6076,4.5885,4.5859,4.5834,4.5803,4.6082,4.6082,4.6271,4.6273,4.6274]},{"header":{"parameterUnit":"m.s-1","parameterCategory":1,"la1":30.2991,"la2":30.254,"lo1":-89.0895,"lo2":-89.0444,"dy":0.0017,"dx":0.0017,"nx":28,"ny":28,"refTime":"2024-12-10T03:00:00:Z","depth":0,"parameterNumber":3,"parameterNumberName":"V-component_of_WINDS"},"data":[0,0,0,0,0,0,0,0,0,0,0,0,0,0,0,0,0,0,0,0,0,0,0,0,0,0,0,0,0,0,0,0,0,0,0,0,0,0,0,0,0,0,0,0,0,0,0,0,0,0,0,0,0,0,0,0,0,0,-1.3235,-1.3236,0,-1.3353,-1.3354,-1.3356,-1.3364,-1.3362,-1.3361,-1.336,-1.3484,-1.3489,-1.3493,0,0,0,0,0,0,0,0,0,0,0,0,0,-1.302,-1.3024,-1.3235,-1.3236,-1.3238,-1.3353,-1.3355,-1.3356,-1.3364,-1.3362,-1.3361,-1.3359,-1.3483,-1.3488,-1.3493,0,0,0,0,0,0,0,0,0,0,0,0,0,-1.3123,-1.3025,-1.3235,-1.3256,-1.3259,-1.3353,-1.3355,-1.3357,-1.3364,-1.3362,-1.336,-1.3358,-1.3481,-1.3487,-1.3494,-1.3576,0,0,-1.3515,-1.3518,0,0,0,0,0,0,0,0,-1.3118,-1.3131,-1.3251,-1.3254,-1.3258,-1.3342,-1.3324,-1.343,-1.3365,-1.3324,-1.336,-1.3357,-1.3439,-1.3449,-1.3475,-1.3582,-1.3587,-1.3516,-1.352,-1.3523,-1.3525,0,0,0,0,0,0,0,-1.311,-1.3126,-1.3282,-1.3253,-1.3257,-1.326,-1.3273,-1.3345,-1.3391,-1.3328,-1.3329,-1.3342,-1.344,-1.3469,-1.3478,-1.3589,-1.3515,-1.3522,-1.3526,-1.3528,-1.3772,-1.3774,0,0,0,0,0,0,-1.3099,-1.312,-1.3278,-1.3285,-1.3181,-1.3266,-1.328,-1.3317,-1.339,-1.34,-1.3344,-1.3342,-1.3458,-1.347,-1.3483,-1.3585,-1.3523,-1.3529,-1.3533,-1.3769,-1.3772,-1.3775,0,0,0,0,0,0,-1.3094,-1.3113,-1.3273,-1.3203,-1.3224,-1.3272,-1.3313,-1.332,-1.3349,-1.3403,-1.3411,-1.3364,-1.3457,-1.3473,-1.3553,-1.3589,-1.3532,-1.3538,-1.3766,-1.377,-1.3773,-1.3789,0,0,0,0,0,0,-1.3088,-1.3111,-1.3142,-1.3204,-1.3227,-1.3341,-1.3315,-1.3324,-1.336,-1.3359,-1.3424,-1.3433,-1.3457,-1.3543,-1.356,-1.3598,-1.3544,-1.3763,-1.3768,-1.3772,-1.3786,-1.3793,-1.3799,0,0,0,0,0,-1.308,-1.3142,-1.3143,-1.3162,-1.3267,-1.3343,-1.3356,-1.3381,-1.3363,-1.3395,-1.343,-1.3431,-1.3582,-1.3551,-1.357,-1.3611,-1.3761,-1.3767,-1.3772,-1.3783,-1.3791,-1.3799,0,0,0,0,0,0,-1.3084,-1.315,-1.3153,-1.3236,-1.3283,-1.3344,-1.3385,-1.3389,-1.3444,-1.3441,-1.3471,-1.3485,-1.3565,-1.3596,-1.3559,-1.3695,-1.367,-1.3679,-1.3672,-1.3681,-1.3687,-1.3678,-1.3549,0,0,0,0,0,-1.3094,-1.3149,-1.3205,-1.3273,-1.3296,-1.3336,-1.337,-1.3386,-1.3436,-1.3457,-1.3498,-1.3548,-1.3607,-1.3645,-1.3703,-1.379,-1.3805,-1.3828,-1.3834,-1.3839,-1.3847,-1.3898,-1.3909,-1.3792,-1.3792,-1.3792,0,0,-1.3116,-1.3159,-1.3192,-1.3275,-1.3313,-1.3371,-1.3353,-1.3415,-1.3458,-1.3467,-1.3545,-1.3576,-1.3635,-1.3719,-1.3759,-1.3748,-1.3883,-1.3846,-1.385,-1.3855,-1.3904,-1.3915,-1.3925,-1.3796,-1.3795,-1.3794,0,0,-1.3186,-1.3224,-1.3285,-1.3324,-1.3383,-1.3409,-1.3424,-1.3484,-1.3505,-1.3584,-1.3591,-1.3644,-1.3745,-1.3787,-1.3821,-1.3908,-1.3912,-1.3926,-1.3961,-1.401,-1.4019,-1.4027,-1.406,-1.4071,-1.3934,-1.3934,-1.3934,0,-1.3207,-1.3292,-1.3316,-1.3378,-1.3415,-1.3424,-1.3488,-1.3525,-1.3599,-1.3625,-1.3611,-1.3739,-1.3779,-1.3874,-1.3895,-1.3922,-1.3942,-1.3919,-1.4015,-1.4024,-1.4032,-1.4064,-1.4075,-1.3935,-1.3935,-1.3935,-1.3935,0,-1.3316,-1.3375,-1.3418,-1.3489,-1.353,-1.3593,-1.3627,-1.3667,-1.3679,-1.3707,-1.3788,-1.3836,-1.3904,-1.3928,-1.394,-1.4025,-1.4017,-1.4009,-1.3985,-1.4044,-1.4074,-1.4086,-1.3937,-1.3937,-1.3936,-1.3936,0,0,-1.3391,-1.3475,-1.349,-1.3523,-1.3589,-1.3636,-1.3699,-1.3765,-1.3799,-1.385,-1.3905,-1.3991,-1.3984,-1.4023,-1.404,-1.4083,-1.4151,-1.407,-1.4072,-1.4085,-1.425,-1.4256,-1.4269,-1.4153,-1.4156,-1.4157,-1.4245,0,-1.3469,-1.358,-1.3604,-1.3701,-1.3758,-1.3768,-1.3824,-1.3871,-1.3899,-1.3952,-1.3984,-1.4045,-1.4031,-1.4055,-1.4097,-1.4133,-1.4184,-1.4127,-1.4206,-1.4209,-1.4192,-1.4284,-1.4291,-1.4371,-1.4257,-1.4259,-1.426,0,-1.3575,-1.3628,-1.373,-1.3789,-1.3814,-1.3863,-1.3926,-1.3976,-1.403,-1.4048,-1.4092,-1.4105,-1.4173,-1.4145,-1.4241,-1.4201,-1.4235,-1.4258,-1.4262,-1.4271,-1.4239,-1.4297,-1.4397,-1.441,-1.4279,-1.4277,-1.4276,0,-1.3621,-1.3718,-1.3792,-1.382,-1.3891,-1.3925,-1.3957,-1.4009,-1.4047,-1.4102,-1.4128,-1.4191,-1.4225,-1.4275,-1.4305,-1.4281,-1.4399,-1.4373,-1.4417,-1.4416,-1.4442,-1.444,-1.455,-1.4462,-1.4462,-1.4461,-1.4461,0,-1.3706,-1.3769,-1.3814,-1.386,-1.3931,-1.3959,-1.4029,-1.406,-1.4107,-1.416,-1.4173,-1.4223,-1.4259,-1.4315,-1.434,-1.4416,-1.4431,-1.4449,-1.4455,-1.4448,-1.4446,-1.4472,-1.4467,-1.4465,-1.4464,-1.4463,-1.4463,0,-1.377,-1.3803,-1.3884,-1.3944,-1.3961,-1.4011,-1.4063,-1.4109,-1.4138,-1.4205,-1.4223,-1.4268,-1.4335,-1.437,-1.4453,-1.4469,-1.4555,-1.4558,-1.4537,-1.4539,-1.4582,-1.4578,-1.4713,-1.4733,-1.4631,-1.4631,-1.4632,0,-1.3823,-1.3871,-1.3936,-1.3972,-1.4004,-1.4062,-1.4101,-1.413,-1.4171,-1.4237,-1.4275,-1.4342,-1.4397,-1.4503,-1.4545,-1.4609,-1.4614,-1.4657,-1.4624,-1.4616,-1.4616,-1.4613,-1.4619,-1.4663,-1.4664,-1.4664,-1.4665,0,-1.3913,-1.3927,-1.3982,-1.4043,-1.4089,-1.4139,-1.4188,-1.4218,-1.4256,-1.4301,-1.4368,-1.4411,-1.4496,-1.4563,-1.463,-1.4664,-1.4672,-1.4675,-1.4689,-1.4683,-1.467,-1.4679,-1.4554,-1.4672,-1.4671,-1.4671,-1.467,-1.467,-1.3974,-1.4018,-1.4071,-1.4132,-1.4172,-1.4218,-1.4264,-1.4299,-1.4355,-1.4426,-1.444,-1.4512,-1.4567,-1.4658,-1.4695,-1.4752,-1.4744,-1.4764,-1.4769,-1.4774,-1.4776,-1.466,-1.4765,-1.4765,-1.4764,-1.4764,-1.4764,0,-1.4067,-1.4101,-1.4157,-1.4225,-1.4274,-1.4275,-1.433,-1.4372,-1.4434,-1.4484,-1.4538,-1.4617,-1.4682,-1.4729,-1.4796,-1.4833,-1.4839,-1.485,-1.4848,-1.4856,-1.4779,-1.4761,-1.4845,-1.4845,-1.4845,-1.4845,-1.4845,-1.4844,-1.412,-1.4195,-1.4215,-1.4311,-1.4345,-1.4415,-1.4446,-1.449,-1.453,-1.4616,-1.467,-1.47,-1.475,-1.482,-1.4881,-1.4893,-1.4918,-1.493,-1.4942,-1.487,-1.4861,-1.4853,-1.4837,-1.4934,-1.4934,-1.5015,-1.5016,-1.5016]}]]